07-06-2023, 00:00:00,     33,    0.0,    9.0,   0.00,   0.00, 1019.4,   66.7, -999.0
07-06-2023, 00:00:10,     33,    0.1,    9.0,   0.00,   0.00, 1019.4,   66.7, -999.0
07-06-2023, 00:00:20,     34,    0.1,    9.0,   0.00,   0.00, 1019.5,   66.9, -999.0
07-06-2023, 00:00:30,     33,    0.0,    9.0,   0.00,   0.00, 1019.4,   66.7, -999.0
07-06-2023, 00:00:41,     33,    0.8,    8.9,   0.00,   0.00, 1019.5,   67.0, -999.0
07-06-2023, 00:00:50,     33,    0.9,    9.0,   0.00,   0.00, 1019.5,   66.8, -999.0
07-06-2023, 00:01:00,     33,    0.2,    8.9,   0.00,   0.00, 1019.4,   66.7, -999.0
07-06-2023, 00:01:10,     33,    0.0,    8.9,   0.00,   0.00, 1019.4,   66.9, -999.0
07-06-2023, 00:01:20,     33,    0.0,    8.8,   0.00,   0.00, 1019.4,   67.0, -999.0
07-06-2023, 00:01:30,     33,    0.1,    8.9,   0.00,   0.00, 1019.4,   67.1, -999.0
07-06-2023, 00:01:40,     33,    0.8,    9.0,   0.00,   0.00, 1019.5,   67.5, -999.0
07-06-2023, 00:01:50,     33,    0.4,    8.9,   0.00,   0.00, 1019.5,   67.3, -999.0
07-06-2023, 00:02:00,     51,    0.4,    9.0,   0.00,   0.00, 1019.5,   67.3, -999.0
07-06-2023, 00:02:10,     49,    0.5,    8.9,   0.00,   0.00, 1019.5,   67.2, -999.0
07-06-2023, 00:02:20,     51,    1.0,    9.0,   0.00,   0.00, 1019.5,   67.5, -999.0
07-06-2023, 00:02:30,     48,    1.4,    8.9,   0.00,   0.00, 1019.5,   67.5, -999.0
07-06-2023, 00:02:40,     48,    1.9,    9.0,   0.00,   0.00, 1019.5,   67.5, -999.0
07-06-2023, 00:02:50,     48,    0.6,    9.0,   0.00,   0.00, 1019.5,   67.4, -999.0
07-06-2023, 00:03:00,     48,    0.1,    8.9,   0.00,   0.00, 1019.4,   67.2, -999.0
07-06-2023, 00:03:10,     47,    0.8,    9.0,   0.00,   0.00, 1019.5,   67.6, -999.0
07-06-2023, 00:03:20,     47,    0.9,    9.1,   0.00,   0.00, 1019.4,   67.6, -999.0
07-06-2023, 00:03:30,     52,    1.3,    9.0,   0.00,   0.00, 1019.4,   67.5, -999.0
07-06-2023, 00:03:40,     72,    1.2,    9.1,   0.00,   0.00, 1019.5,   67.6, -999.0
07-06-2023, 00:03:50,     28,    1.6,    9.0,   0.00,   0.00, 1019.5,   67.6, -999.0
07-06-2023, 00:04:00,      7,    1.9,    9.1,   0.00,   0.00, 1019.5,   67.4, -999.0
07-06-2023, 00:04:10,      7,    0.4,    9.0,   0.00,   0.00, 1019.4,   67.4, -999.0
07-06-2023, 00:04:20,      7,    0.4,    8.9,   0.00,   0.00, 1019.4,   67.3, -999.0
07-06-2023, 00:04:30,     28,    1.3,    9.0,   0.00,   0.00, 1019.5,   67.6, -999.0
07-06-2023, 00:04:40,     30,    1.2,    9.0,   0.00,   0.00, 1019.5,   67.6, -999.0
07-06-2023, 00:04:50,     30,    1.7,    8.9,   0.00,   0.00, 1019.4,   67.5, -999.0
07-06-2023, 00:05:00,     30,    1.3,    8.9,   0.00,   0.00, 1019.4,   67.5, -999.0
07-06-2023, 00:05:10,     30,    0.7,    8.9,   0.00,   0.00, 1019.5,   67.6, -999.0
07-06-2023, 00:05:20,     30,    1.0,    8.9,   0.00,   0.00, 1019.5,   68.0, -999.0
07-06-2023, 00:05:30,     30,    0.0,    8.9,   0.00,   0.00, 1019.4,   67.7, -999.0
07-06-2023, 00:05:40,     30,    0.0,    8.8,   0.00,   0.00, 1019.4,   67.9, -999.0
07-06-2023, 00:05:50,     30,    1.2,    8.9,   0.00,   0.00, 1019.5,   68.1, -999.0
07-06-2023, 00:06:00,     30,    0.2,    9.0,   0.00,   0.00, 1019.5,   67.9, -999.0
07-06-2023, 00:06:10,     30,    0.4,    8.9,   0.00,   0.00, 1019.5,   68.0, -999.0
07-06-2023, 00:06:20,     43,    1.4,    9.0,   0.00,   0.00, 1019.5,   67.9, -999.0
07-06-2023, 00:06:30,     43,    2.5,    9.0,   0.00,   0.00, 1019.5,   67.9, -999.0
07-06-2023, 00:06:40,     16,    2.1,    8.8,   0.00,   0.00, 1019.5,   67.8, -999.0
07-06-2023, 00:06:50,     13,    2.2,    8.9,   0.00,   0.00, 1019.5,   67.9, -999.0
07-06-2023, 00:07:00,     33,    0.9,    8.8,   0.00,   0.00, 1019.5,   68.0, -999.0
07-06-2023, 00:07:10,     35,    0.4,    8.7,   0.00,   0.00, 1019.4,   67.9, -999.0
07-06-2023, 00:07:20,     35,    0.3,    8.8,   0.00,   0.00, 1019.4,   68.2, -999.0
07-06-2023, 00:07:29,     32,    0.5,    8.7,   0.00,   0.00, 1019.4,   68.2, -999.0
07-06-2023, 00:07:40,     54,    1.4,    8.9,   0.00,   0.00, 1019.5,   68.4, -999.0
07-06-2023, 00:07:50,     38,    0.9,    8.9,   0.00,   0.00, 1019.4,   68.4, -999.0
07-06-2023, 00:07:59,     33,    1.3,    9.0,   0.00,   0.00, 1019.5,   68.4, -999.0
07-06-2023, 00:08:09,     33,    1.0,    9.0,   0.00,   0.00, 1019.5,   68.4, -999.0
07-06-2023, 00:08:20,     33,    1.3,    9.0,   0.00,   0.00, 1019.5,   68.4, -999.0
07-06-2023, 00:08:30,     38,    0.8,    8.9,   0.00,   0.00, 1019.5,   68.2, -999.0
07-06-2023, 00:08:39,     36,    0.9,    8.9,   0.00,   0.00, 1019.5,   68.3, -999.0
07-06-2023, 00:08:49,     38,    0.0,    8.8,   0.00,   0.00, 1019.4,   67.9, -999.0
07-06-2023, 00:09:00,     38,    0.0,    8.9,   0.00,   0.00, 1019.4,   67.9, -999.0
07-06-2023, 00:09:09,     38,    0.6,    9.0,   0.00,   0.00, 1019.4,   68.1, -999.0
07-06-2023, 00:09:19,     38,    0.1,    9.0,   0.00,   0.00, 1019.4,   68.1, -999.0
07-06-2023, 00:09:29,     38,    0.0,    8.9,   0.00,   0.00, 1019.4,   67.9, -999.0
07-06-2023, 00:09:40,     39,    1.6,    9.0,   0.00,   0.00, 1019.4,   68.1, -999.0
07-06-2023, 00:09:49,     39,    1.3,    8.9,   0.00,   0.00, 1019.4,   68.0, -999.0
07-06-2023, 00:09:59,     39,    0.3,    8.9,   0.00,   0.00, 1019.4,   67.8, -999.0
07-06-2023, 00:10:10,     39,    0.2,    8.9,   0.00,   0.00, 1019.4,   68.2, -999.0
07-06-2023, 00:10:19,     39,    1.3,    9.1,   0.00,   0.00, 1019.5,   68.4, -999.0
07-06-2023, 00:10:29,     39,    1.3,    9.0,   0.00,   0.00, 1019.5,   68.2, -999.0
07-06-2023, 00:10:39,     39,    0.7,    9.0,   0.00,   0.00, 1019.5,   68.0, -999.0
07-06-2023, 00:10:50,     65,    1.6,    9.0,   0.00,   0.00, 1019.5,   68.1, -999.0
07-06-2023, 00:10:59,     65,    0.3,    8.9,   0.00,   0.00, 1019.4,   68.1, -999.0
07-06-2023, 00:11:09,     65,    0.6,    9.0,   0.00,   0.00, 1019.5,   68.3, -999.0
07-06-2023, 00:11:19,     56,    1.4,    9.0,   0.00,   0.00, 1019.5,   68.3, -999.0
07-06-2023, 00:11:29,     56,    1.6,    8.9,   0.00,   0.00, 1019.5,   68.3, -999.0
07-06-2023, 00:11:39,     56,    1.2,    8.9,   0.00,   0.00, 1019.5,   68.2, -999.0
07-06-2023, 00:11:49,     56,    0.5,    8.8,   0.00,   0.00, 1019.5,   68.2, -999.0
07-06-2023, 00:11:59,     56,    0.5,    8.8,   0.00,   0.00, 1019.5,   68.3, -999.0
07-06-2023, 00:12:09,     56,    1.2,    8.8,   0.00,   0.00, 1019.5,   68.5, -999.0
07-06-2023, 00:12:19,     37,    2.3,    8.8,   0.00,   0.00, 1019.5,   68.5, -999.0
07-06-2023, 00:12:29,     47,    2.1,    8.7,   0.00,   0.00, 1019.4,   68.6, -999.0
07-06-2023, 00:12:39,     23,    1.3,    8.8,   0.00,   0.00, 1019.5,   68.7, -999.0
07-06-2023, 00:12:49,     26,    1.5,    8.8,   0.00,   0.00, 1019.5,   69.0, -999.0
07-06-2023, 00:12:59,     27,    0.9,    8.8,   0.00,   0.00, 1019.5,   69.1, -999.0
07-06-2023, 00:13:09,     27,    0.1,    8.8,   0.00,   0.00, 1019.4,   69.2, -999.0
07-06-2023, 00:13:19,     27,    0.0,    8.7,   0.00,   0.00, 1019.4,   69.1, -999.0
07-06-2023, 00:13:29,     27,    0.1,    8.8,   0.00,   0.00, 1019.4,   69.1, -999.0
07-06-2023, 00:13:39,     26,    0.0,    8.8,   0.00,   0.00, 1019.4,   69.1, -999.0
07-06-2023, 00:13:49,     26,    0.2,    8.8,   0.00,   0.00, 1019.4,   69.1, -999.0
07-06-2023, 00:13:59,     27,    0.0,    8.8,   0.00,   0.00, 1019.4,   68.9, -999.0
07-06-2023, 00:14:09,     26,    0.0,    8.7,   0.00,   0.00, 1019.3,   69.0, -999.0
07-06-2023, 00:14:19,    110,    1.3,    8.8,   0.00,   0.00, 1019.5,   69.1, -999.0
07-06-2023, 00:14:29,    109,    0.5,    8.7,   0.00,   0.00, 1019.5,   69.1, -999.0
07-06-2023, 00:14:39,    109,    0.6,    8.8,   0.00,   0.00, 1019.5,   69.3, -999.0
07-06-2023, 00:14:49,     93,    0.6,    8.8,   0.00,   0.00, 1019.5,   69.4, -999.0
07-06-2023, 00:14:59,     26,    1.0,    8.9,   0.00,   0.00, 1019.4,   69.5, -999.0
07-06-2023, 00:15:09,     27,    1.7,    8.9,   0.00,   0.00, 1019.5,   69.5, -999.0
07-06-2023, 00:15:19,     27,    1.0,    8.8,   0.00,   0.00, 1019.5,   69.5, -999.0
07-06-2023, 00:15:29,     29,    1.4,    8.9,   0.00,   0.00, 1019.5,   69.5, -999.0
07-06-2023, 00:15:39,     29,    1.8,    8.9,   0.00,   0.00, 1019.4,   69.6, -999.0
07-06-2023, 00:15:49,     29,    1.7,    8.9,   0.00,   0.00, 1019.4,   69.5, -999.0
07-06-2023, 00:15:59,     30,    0.8,    8.8,   0.00,   0.00, 1019.4,   69.4, -999.0
07-06-2023, 00:16:09,     30,    0.3,    8.8,   0.00,   0.00, 1019.4,   69.5, -999.0
07-06-2023, 00:16:19,     30,    1.1,    9.0,   0.00,   0.00, 1019.5,   69.7, -999.0
07-06-2023, 00:16:28,     30,    0.9,    8.9,   0.00,   0.00, 1019.4,   69.6, -999.0
07-06-2023, 00:16:39,     30,    0.7,    8.9,   0.00,   0.00, 1019.4,   69.3, -999.0
07-06-2023, 00:16:49,     30,    0.4,    8.7,   0.00,   0.00, 1019.4,   69.3, -999.0
07-06-2023, 00:16:59,     30,    0.3,    8.8,   0.00,   0.00, 1019.5,   69.4, -999.0
07-06-2023, 00:17:09,     30,    0.0,    8.7,   0.00,   0.00, 1019.4,   69.2, -999.0
07-06-2023, 00:17:19,     30,    0.0,    8.7,   0.00,   0.00, 1019.4,   69.3, -999.0
07-06-2023, 00:17:29,     30,    0.1,    8.8,   0.00,   0.00, 1019.4,   69.5, -999.0
07-06-2023, 00:17:38,     30,    0.0,    8.9,   0.00,   0.00, 1019.4,   69.4, -999.0
07-06-2023, 00:17:49,     30,    1.0,    8.9,   0.00,   0.00, 1019.5,   69.9, -999.0
07-06-2023, 00:17:59,     28,    0.1,    8.9,   0.00,   0.00, 1019.4,   69.6, -999.0
07-06-2023, 00:18:08,     30,    0.9,    8.9,   0.00,   0.00, 1019.5,   69.7, -999.0
07-06-2023, 00:18:18,     30,    0.4,    8.9,   0.00,   0.00, 1019.4,   69.6, -999.0
07-06-2023, 00:18:29,     30,    0.3,    8.9,   0.00,   0.00, 1019.4,   69.4, -999.0
07-06-2023, 00:18:39,     30,    1.2,    8.9,   0.00,   0.00, 1019.5,   69.6, -999.0
07-06-2023, 00:18:48,     31,    1.3,    8.8,   0.00,   0.00, 1019.5,   69.5, -999.0
07-06-2023, 00:18:58,     30,    0.3,    8.9,   0.00,   0.00, 1019.4,   69.4, -999.0
07-06-2023, 00:19:09,     30,    0.0,    8.7,   0.00,   0.00, 1019.3,   69.2, -999.0
07-06-2023, 00:19:18,     30,    0.5,    8.9,   0.00,   0.00, 1019.4,   69.5, -999.0
07-06-2023, 00:19:28,     30,    0.4,    8.9,   0.00,   0.00, 1019.4,   69.6, -999.0
07-06-2023, 00:19:39,     30,    0.7,    8.7,   0.00,   0.00, 1019.4,   69.5, -999.0
07-06-2023, 00:19:48,     30,    0.1,    8.8,   0.00,   0.00, 1019.3,   69.3, -999.0
07-06-2023, 00:19:58,     30,    0.4,    8.7,   0.00,   0.00, 1019.4,   69.5, -999.0
07-06-2023, 00:20:08,     30,    0.6,    8.8,   0.00,   0.00, 1019.4,   69.8, -999.0
07-06-2023, 00:20:19,     29,    0.0,    8.7,   0.00,   0.00, 1019.4,   69.5, -999.0
07-06-2023, 00:20:28,     30,    0.0,    8.7,   0.00,   0.00, 1019.4,   69.5, -999.0
07-06-2023, 00:20:38,     30,    0.0,    8.6,   0.00,   0.00, 1019.4,   69.6, -999.0
07-06-2023, 00:20:48,     30,    0.0,    8.7,   0.00,   0.00, 1019.4,   69.6, -999.0
07-06-2023, 00:20:59,     30,    0.0,    8.7,   0.00,   0.00, 1019.4,   69.6, -999.0
07-06-2023, 00:21:08,     31,    0.8,    8.8,   0.00,   0.00, 1019.5,   70.0, -999.0
07-06-2023, 00:21:18,     30,    0.9,    8.8,   0.00,   0.00, 1019.5,   70.0, -999.0
07-06-2023, 00:21:28,     30,    0.0,    8.7,   0.00,   0.00, 1019.4,   69.6, -999.0
07-06-2023, 00:21:38,     30,    0.0,    8.8,   0.00,   0.00, 1019.4,   69.8, -999.0
07-06-2023, 00:21:48,     30,    1.3,    8.8,   0.00,   0.00, 1019.5,   70.0, -999.0
07-06-2023, 00:21:58,     30,    3.1,    8.8,   0.00,   0.00, 1019.5,   70.0, -999.0
07-06-2023, 00:22:08,     77,    2.4,    8.8,   0.00,   0.00, 1019.5,   69.9, -999.0
07-06-2023, 00:22:18,     54,    1.3,    8.7,   0.00,   0.00, 1019.5,   70.0, -999.0
07-06-2023, 00:22:28,     54,    0.8,    8.7,   0.00,   0.00, 1019.4,   70.1, -999.0
07-06-2023, 00:22:38,     54,    1.1,    8.8,   0.00,   0.00, 1019.5,   70.2, -999.0
07-06-2023, 00:22:48,     54,    1.5,    8.8,   0.00,   0.00, 1019.5,   70.2, -999.0
07-06-2023, 00:22:58,     53,    0.2,    8.7,   0.00,   0.00, 1019.4,   70.1, -999.0
07-06-2023, 00:23:08,     54,    0.5,    8.7,   0.00,   0.00, 1019.5,   70.5, -999.0
07-06-2023, 00:23:18,     53,    0.3,    8.7,   0.00,   0.00, 1019.5,   70.5, -999.0
07-06-2023, 00:23:28,     54,    0.0,    8.6,   0.00,   0.00, 1019.4,   70.1, -999.0
07-06-2023, 00:23:38,     54,    0.3,    8.7,   0.00,   0.00, 1019.5,   70.3, -999.0
07-06-2023, 00:23:48,     54,    0.0,    8.7,   0.00,   0.00, 1019.4,   70.3, -999.0
07-06-2023, 00:23:58,     54,    0.2,    8.7,   0.00,   0.00, 1019.4,   70.4, -999.0
07-06-2023, 00:24:08,     53,    1.1,    8.7,   0.00,   0.00, 1019.5,   70.6, -999.0
07-06-2023, 00:24:18,     34,    1.7,    8.7,   0.00,   0.00, 1019.5,   70.5, -999.0
07-06-2023, 00:24:28,     72,    2.0,    8.7,   0.00,   0.00, 1019.5,   70.5, -999.0
07-06-2023, 00:24:38,     71,    0.7,    8.7,   0.00,   0.00, 1019.5,   70.5, -999.0
07-06-2023, 00:24:48,     71,    0.0,    8.7,   0.00,   0.00, 1019.4,   70.5, -999.0
07-06-2023, 00:24:58,     72,    0.5,    8.8,   0.00,   0.00, 1019.5,   70.8, -999.0
07-06-2023, 00:25:08,     71,    0.4,    8.8,   0.00,   0.00, 1019.4,   70.6, -999.0
07-06-2023, 00:25:18,     71,    0.1,    8.6,   0.00,   0.00, 1019.4,   70.4, -999.0
07-06-2023, 00:25:28,     71,    0.4,    8.7,   0.00,   0.00, 1019.5,   70.6, -999.0
07-06-2023, 00:25:38,     71,    1.3,    8.8,   0.00,   0.00, 1019.5,   70.7, -999.0
07-06-2023, 00:25:48,     72,    0.6,    8.8,   0.00,   0.00, 1019.5,   70.8, -999.0
07-06-2023, 00:25:58,     71,    0.0,    8.8,   0.00,   0.00, 1019.4,   70.6, -999.0
07-06-2023, 00:26:08,     72,    0.0,    8.8,   0.00,   0.00, 1019.4,   70.6, -999.0
07-06-2023, 00:26:18,     72,    0.0,    8.8,   0.00,   0.00, 1019.4,   70.5, -999.0
07-06-2023, 00:26:28,     71,    0.0,    8.8,   0.00,   0.00, 1019.4,   70.4, -999.0
07-06-2023, 00:26:38,     71,    0.0,    8.8,   0.00,   0.00, 1019.4,   70.2, -999.0
07-06-2023, 00:26:48,     71,    0.0,    8.8,   0.00,   0.00, 1019.3,   70.1, -999.0
07-06-2023, 00:26:58,     71,    0.0,    8.8,   0.00,   0.00, 1019.3,   70.1, -999.0
07-06-2023, 00:27:08,     71,    0.1,    8.7,   0.00,   0.00, 1019.4,   70.2, -999.0
07-06-2023, 00:27:17,     71,    0.0,    8.8,   0.00,   0.00, 1019.4,   70.1, -999.0
07-06-2023, 00:27:28,     71,    0.1,    8.9,   0.00,   0.00, 1019.4,   70.0, -999.0
07-06-2023, 00:27:38,     72,    0.6,    8.9,   0.00,   0.00, 1019.5,   70.3, -999.0
07-06-2023, 00:27:47,     54,    2.4,    8.8,   0.00,   0.00, 1019.5,   70.1, -999.0
07-06-2023, 00:27:58,     33,    2.3,    8.8,   0.00,   0.00, 1019.5,   69.8, -999.0
07-06-2023, 00:28:08,     43,    2.3,    8.7,   0.00,   0.00, 1019.5,   69.0, -999.0
07-06-2023, 00:28:18,     41,    1.1,    8.7,   0.00,   0.00, 1019.4,   69.0, -999.0
07-06-2023, 00:28:27,     47,    1.8,    8.7,   0.00,   0.00, 1019.5,   69.1, -999.0
07-06-2023, 00:28:38,     55,    2.8,    8.7,   0.00,   0.00, 1019.4,   68.9, -999.0
07-06-2023, 00:28:48,     47,    3.1,    8.7,   0.00,   0.00, 1019.5,   68.7, -999.0
07-06-2023, 00:28:57,     47,    1.6,    8.7,   0.00,   0.00, 1019.4,   68.7, -999.0
07-06-2023, 00:29:07,     70,    2.0,    8.8,   0.00,   0.00, 1019.5,   69.0, -999.0
07-06-2023, 00:29:18,     55,    2.2,    8.7,   0.00,   0.00, 1019.4,   69.1, -999.0
07-06-2023, 00:29:27,     54,    1.4,    9.0,   0.00,   0.00, 1019.4,   69.1, -999.0
07-06-2023, 00:29:37,     55,    0.4,    8.8,   0.00,   0.00, 1019.4,   68.6, -999.0
07-06-2023, 00:29:47,     54,    0.5,    8.9,   0.00,   0.00, 1019.4,   68.6, -999.0
07-06-2023, 00:29:58,     54,    0.1,    8.9,   0.00,   0.00, 1019.4,   68.4, -999.0
07-06-2023, 00:30:07,     54,    0.3,    8.8,   0.00,   0.00, 1019.4,   68.3, -999.0
07-06-2023, 00:30:17,     54,    0.9,    8.9,   0.00,   0.00, 1019.4,   68.4, -999.0
07-06-2023, 00:30:27,     54,    0.7,    8.8,   0.00,   0.00, 1019.4,   68.2, -999.0
07-06-2023, 00:30:37,     60,    2.7,    8.8,   0.00,   0.00, 1019.5,   68.1, -999.0
07-06-2023, 00:30:47,     16,    2.7,    8.7,   0.00,   0.00, 1019.4,   68.0, -999.0
07-06-2023, 00:30:57,      5,    2.8,    8.7,   0.00,   0.00, 1019.4,   68.1, -999.0
07-06-2023, 00:31:07,     44,    2.5,    8.7,   0.00,   0.00, 1019.4,   68.2, -999.0
07-06-2023, 00:31:17,     45,    2.0,    8.7,   0.00,   0.00, 1019.4,   68.5, -999.0
07-06-2023, 00:31:27,     45,    0.0,    8.6,   0.00,   0.00, 1019.3,   68.3, -999.0
07-06-2023, 00:31:37,     45,    0.0,    8.6,   0.00,   0.00, 1019.4,   68.5, -999.0
07-06-2023, 00:31:47,     45,    0.0,    8.4,   0.00,   0.00, 1019.3,   68.5, -999.0
07-06-2023, 00:31:57,     45,    0.2,    8.6,   0.00,   0.00, 1019.4,   68.7, -999.0
07-06-2023, 00:32:07,     45,    0.0,    8.7,   0.00,   0.00, 1019.4,   68.4, -999.0
07-06-2023, 00:32:17,     45,    0.0,    8.6,   0.00,   0.00, 1019.4,   68.4, -999.0
07-06-2023, 00:32:27,     45,    0.0,    8.7,   0.00,   0.00, 1019.3,   68.5, -999.0
07-06-2023, 00:32:37,     46,    0.0,    8.6,   0.00,   0.00, 1019.4,   68.5, -999.0
07-06-2023, 00:32:47,     43,    0.8,    8.7,   0.00,   0.00, 1019.5,   68.9, -999.0
07-06-2023, 00:32:57,     43,    1.6,    8.8,   0.00,   0.00, 1019.5,   68.8, -999.0
07-06-2023, 00:33:07,     43,    1.5,    8.7,   0.00,   0.00, 1019.5,   68.7, -999.0
07-06-2023, 00:33:17,     43,    1.3,    8.7,   0.00,   0.00, 1019.5,   68.5, -999.0
07-06-2023, 00:33:27,     43,    0.8,    8.6,   0.00,   0.00, 1019.5,   68.5, -999.0
07-06-2023, 00:33:37,     44,    0.5,    8.7,   0.00,   0.00, 1019.5,   68.6, -999.0
07-06-2023, 00:33:47,     43,    1.1,    8.7,   0.00,   0.00, 1019.5,   68.7, -999.0
07-06-2023, 00:33:57,     43,    0.4,    8.7,   0.00,   0.00, 1019.5,   68.5, -999.0
07-06-2023, 00:34:07,     43,    0.0,    8.6,   0.00,   0.00, 1019.4,   68.2, -999.0
07-06-2023, 00:34:17,     44,    0.0,    8.4,   0.00,   0.00, 1019.4,   68.4, -999.0
07-06-2023, 00:34:27,     43,    0.0,    8.5,   0.00,   0.00, 1019.4,   68.4, -999.0
07-06-2023, 00:34:37,     43,    1.0,    8.6,   0.00,   0.00, 1019.5,   68.8, -999.0
07-06-2023, 00:34:47,     43,    0.6,    8.7,   0.00,   0.00, 1019.5,   68.7, -999.0
07-06-2023, 00:34:57,     43,    0.0,    8.6,   0.00,   0.00, 1019.3,   68.2, -999.0
07-06-2023, 00:35:07,     43,    0.0,    8.6,   0.00,   0.00, 1019.4,   68.2, -999.0
07-06-2023, 00:35:17,     43,    0.0,    8.5,   0.00,   0.00, 1019.4,   68.2, -999.0
07-06-2023, 00:35:27,     61,    0.9,    8.6,   0.00,   0.00, 1019.4,   68.4, -999.0
07-06-2023, 00:35:37,     40,    3.1,    8.6,   0.00,   0.00, 1019.4,   68.7, -999.0
07-06-2023, 00:35:47,     97,    1.9,    8.6,   0.00,   0.00, 1019.5,   68.4, -999.0
07-06-2023, 00:35:57,     90,    1.0,    8.6,   0.00,   0.00, 1019.5,   68.5, -999.0
07-06-2023, 00:36:07,     60,    1.1,    8.7,   0.00,   0.00, 1019.5,   68.6, -999.0
07-06-2023, 00:36:17,     35,    1.7,    8.8,   0.00,   0.00, 1019.5,   68.7, -999.0
07-06-2023, 00:36:27,     20,    1.8,    8.7,   0.00,   0.00, 1019.5,   68.6, -999.0
07-06-2023, 00:36:37,     68,    3.3,    8.7,   0.00,   0.00, 1019.5,   68.4, -999.0
07-06-2023, 00:36:47,     35,    2.0,    8.7,   0.00,   0.00, 1019.5,   68.0, -999.0
07-06-2023, 00:36:57,     45,    2.3,    8.7,   0.00,   0.00, 1019.4,   68.0, -999.0
07-06-2023, 00:37:07,     39,    2.1,    8.6,   0.00,   0.00, 1019.4,   67.9, -999.0
07-06-2023, 00:37:16,     35,    4.0,    8.7,   0.00,   0.00, 1019.5,   67.9, -999.0
07-06-2023, 00:37:27,     28,    1.5,    8.6,   0.00,   0.00, 1019.5,   67.7, -999.0
07-06-2023, 00:37:37,     40,    1.9,    8.6,   0.00,   0.00, 1019.5,   67.6, -999.0
07-06-2023, 00:37:47,     40,    0.2,    8.5,   0.00,   0.00, 1019.4,   67.6, -999.0
07-06-2023, 00:37:56,     41,    0.9,    8.6,   0.00,   0.00, 1019.5,   68.0, -999.0
07-06-2023, 00:38:07,     40,    0.5,    8.6,   0.00,   0.00, 1019.5,   68.0, -999.0
07-06-2023, 00:38:17,     41,    0.2,    8.6,   0.00,   0.00, 1019.5,   68.0, -999.0
07-06-2023, 00:38:26,     40,    0.2,    8.6,   0.00,   0.00, 1019.4,   67.8, -999.0
07-06-2023, 00:38:36,     40,    0.0,    8.6,   0.00,   0.00, 1019.4,   67.7, -999.0
07-06-2023, 00:38:47,     41,    0.3,    8.7,   0.00,   0.00, 1019.4,   67.9, -999.0
07-06-2023, 00:38:57,     40,    0.3,    8.8,   0.00,   0.00, 1019.4,   68.0, -999.0
07-06-2023, 00:39:06,     41,    0.0,    8.6,   0.00,   0.00, 1019.3,   67.7, -999.0
07-06-2023, 00:39:16,     41,    0.4,    8.7,   0.00,   0.00, 1019.5,   68.0, -999.0
07-06-2023, 00:39:27,     41,    0.9,    8.7,   0.00,   0.00, 1019.5,   67.8, -999.0
07-06-2023, 00:39:36,     41,    0.0,    8.6,   0.00,   0.00, 1019.4,   67.4, -999.0
07-06-2023, 00:39:46,     40,    0.0,    8.6,   0.00,   0.00, 1019.4,   67.5, -999.0
07-06-2023, 00:39:56,     41,    0.0,    8.7,   0.00,   0.00, 1019.4,   67.5, -999.0
07-06-2023, 00:40:07,     41,    1.2,    8.7,   0.00,   0.00, 1019.5,   67.9, -999.0
07-06-2023, 00:40:16,     41,    1.1,    8.7,   0.00,   0.00, 1019.4,   67.6, -999.0
07-06-2023, 00:40:26,     40,    0.6,    8.7,   0.00,   0.00, 1019.5,   67.5, -999.0
07-06-2023, 00:40:36,     40,    0.0,    8.6,   0.00,   0.00, 1019.3,   67.2, -999.0
07-06-2023, 00:40:46,     41,    0.0,    8.6,   0.00,   0.00, 1019.3,   67.4, -999.0
07-06-2023, 00:40:56,     40,    0.0,    8.6,   0.00,   0.00, 1019.3,   67.5, -999.0
07-06-2023, 00:41:06,     40,    0.2,    8.7,   0.00,   0.00, 1019.4,   67.8, -999.0
07-06-2023, 00:41:16,     41,    0.1,    8.7,   0.00,   0.00, 1019.4,   67.5, -999.0
07-06-2023, 00:41:26,     41,    0.1,    8.7,   0.00,   0.00, 1019.4,   67.6, -999.0
07-06-2023, 00:41:36,     41,    0.0,    8.6,   0.00,   0.00, 1019.3,   67.2, -999.0
07-06-2023, 00:41:46,     41,    0.0,    8.7,   0.00,   0.00, 1019.3,   67.3, -999.0
07-06-2023, 00:41:56,     41,    1.2,    8.8,   0.00,   0.00, 1019.4,   67.5, -999.0
07-06-2023, 00:42:06,     41,    1.0,    8.8,   0.00,   0.00, 1019.4,   67.4, -999.0
07-06-2023, 00:42:16,     41,    1.2,    8.7,   0.00,   0.00, 1019.4,   67.2, -999.0
07-06-2023, 00:42:26,     39,    1.3,    8.7,   0.00,   0.00, 1019.4,   67.2, -999.0
07-06-2023, 00:42:36,     42,    1.0,    8.7,   0.00,   0.00, 1019.4,   67.5, -999.0
07-06-2023, 00:42:46,     41,    1.0,    8.7,   0.00,   0.00, 1019.4,   67.6, -999.0
07-06-2023, 00:42:56,     39,    0.0,    8.7,   0.00,   0.00, 1019.3,   67.2, -999.0
07-06-2023, 00:43:06,     41,    1.7,    8.8,   0.00,   0.00, 1019.4,   67.6, -999.0
07-06-2023, 00:43:16,     40,    0.8,    8.7,   0.00,   0.00, 1019.4,   67.4, -999.0
07-06-2023, 00:43:26,     47,    1.4,    8.7,   0.00,   0.00, 1019.4,   67.3, -999.0
07-06-2023, 00:43:36,     41,    1.1,    8.5,   0.00,   0.00, 1019.4,   67.1, -999.0
07-06-2023, 00:43:46,     42,    0.9,    8.6,   0.00,   0.00, 1019.4,   67.0, -999.0
07-06-2023, 00:43:56,     48,    2.4,    8.7,   0.00,   0.00, 1019.4,   67.3, -999.0
07-06-2023, 00:44:06,     20,    2.1,    8.6,   0.00,   0.00, 1019.4,   67.1, -999.0
07-06-2023, 00:44:16,     42,    1.8,    8.5,   0.00,   0.00, 1019.4,   67.0, -999.0
07-06-2023, 00:44:26,     67,    2.7,    8.6,   0.00,   0.00, 1019.5,   67.0, -999.0
07-06-2023, 00:44:36,     66,    1.3,    8.5,   0.00,   0.00, 1019.4,   67.0, -999.0
07-06-2023, 00:44:46,     54,    1.0,    8.6,   0.00,   0.00, 1019.4,   67.0, -999.0
07-06-2023, 00:44:56,     50,    1.0,    8.5,   0.00,   0.00, 1019.4,   67.0, -999.0
07-06-2023, 00:45:06,     19,    1.1,    8.4,   0.00,   0.00, 1019.4,   66.9, -999.0
07-06-2023, 00:45:16,     47,    0.7,    8.5,   0.00,   0.00, 1019.4,   67.1, -999.0
07-06-2023, 00:45:26,     45,    2.2,    8.5,   0.00,   0.00, 1019.4,   67.2, -999.0
07-06-2023, 00:45:36,     45,    0.7,    8.6,   0.00,   0.00, 1019.4,   67.2, -999.0
07-06-2023, 00:45:46,     45,    0.4,    8.5,   0.00,   0.00, 1019.4,   67.2, -999.0
07-06-2023, 00:45:56,     45,    0.3,    8.6,   0.00,   0.00, 1019.4,   67.5, -999.0
07-06-2023, 00:46:06,     45,    0.6,    8.6,   0.00,   0.00, 1019.3,   67.2, -999.0
07-06-2023, 00:46:16,     42,    1.4,    8.6,   0.00,   0.00, 1019.4,   67.4, -999.0
07-06-2023, 00:46:26,     43,    1.7,    8.5,   0.00,   0.00, 1019.4,   67.2, -999.0
07-06-2023, 00:46:36,     37,    2.5,    8.6,   0.00,   0.00, 1019.5,   67.0, -999.0
07-06-2023, 00:46:46,     48,    0.8,    8.5,   0.00,   0.00, 1019.4,   67.0, -999.0